• En España
  • Lista de países
  • Para 7 días
  • Temperatura del agua
  • Mapa Satelital
  • El tiempo en el mapa
  • Informadores
  • user-avatar
    Iniciar sesión

    Tiempo cada hora Lyubec

    Hoy, 15 Noviembre, Jueves

    Tiempo Temperatura Precipitaciones Viento Presión Humedad
    00:00 -1°C° 0.2 mm 1 mps 754 mmHg 94%
    01:00 -1°C° 0.2 mm 1 mps 755 mmHg 94%
    02:00 -1°C° 0 mm 1 mps 755 mmHg 94%
    03:00 -1°C° 0.1 mm 1 mps 756 mmHg 94%
    04:00 -2°C° 0.1 mm 1 mps 756 mmHg 94%
    05:00 -2°C° 0.1 mm 1 mps 756 mmHg 95%
    06:00 -2°C° 0.1 mm 1 mps 757 mmHg 95%
    07:00 -2°C° 0.1 mm 1 mps 757 mmHg 95%
    08:00 -2°C° 0.1 mm 1 mps 758 mmHg 95%
    09:00 -1°C° 0 mm 1 mps 758 mmHg 92%
    10:00 -1°C° 0 mm 1 mps 759 mmHg 90%
    11:00 0°C° 0 mm 1 mps 759 mmHg 88%
    12:00 0°C° 0 mm 1 mps 760 mmHg 88%
    13:00 0°C° 0 mm 1 mps 760 mmHg 89%
    14:00 0°C° 0 mm 1 mps 760 mmHg 89%
    15:00 0°C° 0 mm 1 mps 761 mmHg 90%
    16:00 -1°C° 0 mm 1 mps 761 mmHg 92%
    17:00 -2°C° 0 mm 1 mps 762 mmHg 93%
    18:00 -2°C° 0 mm 1 mps 762 mmHg 93%
    19:00 -2°C° 0 mm 1 mps 762 mmHg 93%
    20:00 -2°C° 0 mm 1 mps 763 mmHg 93%
    21:00 -2°C° 0 mm 1 mps 763 mmHg 93%
    22:00 -2°C° 0 mm 1 mps 763 mmHg 94%
    23:00 -3°C° 0 mm 1 mps 763 mmHg 94%

    Mañana, 16 Noviembre, Viernes

    Tiempo Temperatura Precipitaciones Viento Presión Humedad
    00:00 -3°C° 0 mm 1 mps 764 mmHg 94%
    01:00 -3°C° 0 mm 1 mps 764 mmHg 94%
    02:00 -3°C° 0 mm 1 mps 765 mmHg 94%
    03:00 -3°C° 0 mm 1 mps 765 mmHg 94%
    04:00 -3°C° 0 mm 1 mps 765 mmHg 95%
    05:00 -4°C° 0 mm 1 mps 765 mmHg 95%
    06:00 -4°C° 0 mm 1 mps 765 mmHg 95%
    07:00 -4°C° 0 mm 1 mps 765 mmHg 95%
    08:00 -6°C° 0 mm 2 mps 765 mmHg 95%
    09:00 -4°C° 0 mm 2 mps 766 mmHg 93%
    10:00 -3°C° 0 mm 2 mps 766 mmHg 91%
    11:00 -2°C° 0 mm 2 mps 766 mmHg 89%
    12:00 -2°C° 0 mm 2 mps 766 mmHg 90%
    13:00 -2°C° 0 mm 2 mps 766 mmHg 90%
    14:00 -1°C° 0 mm 2 mps 766 mmHg 91%
    15:00 -2°C° 0 mm 2 mps 766 mmHg 92%
    16:00 -3°C° 0 mm 2 mps 766 mmHg 93%
    17:00 -3°C° 0 mm 2 mps 765 mmHg 95%
    18:00 -3°C° 0 mm 2 mps 765 mmHg 94%
    19:00 -3°C° 0 mm 2 mps 765 mmHg 94%
    20:00 -3°C° 0 mm 2 mps 765 mmHg 94%
    21:00 -4°C° 0 mm 3 mps 765 mmHg 94%
    22:00 -4°C° 0 mm 3 mps 765 mmHg 94%
    23:00 -2°C° 0 mm 3 mps 764 mmHg 94%

    Pasado mañana, 17 Noviembre, Sábado

    Tiempo Temperatura Precipitaciones Viento Presión Humedad
    00:00 -2°C° 0 mm 3 mps 764 mmHg 94%
    01:00 -2°C° 0 mm 3 mps 764 mmHg 94%
    02:00 -2°C° 0 mm 3 mps 764 mmHg 94%
    03:00 -2°C° 0 mm 3 mps 763 mmHg 94%
    04:00 -1°C° 0 mm 3 mps 763 mmHg 93%
    05:00 -1°C° 0 mm 3 mps 762 mmHg 93%
    06:00 -2°C° 0.1 mm 4 mps 762 mmHg 93%
    07:00 -1°C° 0.1 mm 4 mps 761 mmHg 93%
    08:00 -1°C° 0.1 mm 4 mps 760 mmHg 93%
    09:00 -1°C° 0.1 mm 4 mps 760 mmHg 92%
    10:00 -1°C° 0.1 mm 4 mps 759 mmHg 92%
    11:00 -1°C° 0.1 mm 4 mps 759 mmHg 92%
    12:00 0°C° 0.1 mm 4 mps 758 mmHg 92%
    13:00 0°C° 0.1 mm 4 mps 757 mmHg 92%
    14:00 0°C° 0.1 mm 4 mps 757 mmHg 93%
    15:00 0°C° 0.2 mm 4 mps 756 mmHg 93%
    16:00 0°C° 0.2 mm 4 mps 755 mmHg 94%
    17:00 0°C° 0.2 mm 4 mps 754 mmHg 95%
    18:00 0°C° 0.1 mm 4 mps 754 mmHg 95%
    19:00 +2°C° 0.1 mm 3 mps 753 mmHg 96%
    20:00 +2°C° 0.1 mm 3 mps 752 mmHg 96%
    21:00 +2°C° 0.1 mm 3 mps 752 mmHg 96%
    22:00 +2°C° 0.1 mm 3 mps 751 mmHg 96%
    23:00 +2°C° 0.1 mm 3 mps 751 mmHg 97%

    18 Noviembre, Domingo

    Tiempo Temperatura Precipitaciones Viento Presión Humedad
    00:00 +2°C° 0.4 mm 3 mps 750 mmHg 96%
    01:00 +2°C° 0.4 mm 3 mps 749 mmHg 96%
    02:00 +1°C° 0.4 mm 3 mps 749 mmHg 96%
    03:00 +1°C° 0.3 mm 3 mps 748 mmHg 96%
    04:00 +1°C° 0.3 mm 3 mps 748 mmHg 96%
    05:00 +2°C° 0.3 mm 2 mps 748 mmHg 96%
    06:00 +2°C° 0.3 mm 2 mps 748 mmHg 96%
    07:00 +2°C° 0.3 mm 2 mps 747 mmHg 97%
    08:00 +3°C° 0.3 mm 1 mps 747 mmHg 97%
    09:00 +2°C° 0.1 mm 2 mps 748 mmHg 97%
    10:00 +2°C° 0.1 mm 2 mps 748 mmHg 96%
    11:00 +1°C° 0.1 mm 3 mps 749 mmHg 96%
    12:00 +1°C° 0.1 mm 3 mps 750 mmHg 95%
    13:00 +1°C° 0.1 mm 3 mps 750 mmHg 95%
    14:00 +1°C° 0.1 mm 3 mps 751 mmHg 95%
    15:00 +1°C° 0.1 mm 3 mps 752 mmHg 94%
    16:00 +1°C° 0.1 mm 3 mps 752 mmHg 94%
    17:00 0°C° 0.1 mm 4 mps 753 mmHg 93%
    18:00 0°C° 0.1 mm 4 mps 753 mmHg 93%
    19:00 0°C° 0.1 mm 4 mps 754 mmHg 93%
    20:00 0°C° 0.1 mm 4 mps 754 mmHg 93%
    21:00 +1°C° 0.1 mm 3 mps 754 mmHg 93%
    22:00 +1°C° 0.1 mm 3 mps 755 mmHg 93%
    23:00 +1°C° 0.1 mm 3 mps 755 mmHg 92%

    19 Noviembre, Lunes

    Tiempo Temperatura Precipitaciones Viento Presión Humedad
    00:00 +1°C° 0.1 mm 3 mps 756 mmHg 92%
    01:00 +1°C° 0.1 mm 3 mps 756 mmHg 92%
    02:00 +1°C° 0.1 mm 3 mps 756 mmHg 92%
    03:00 -1°C° 0.2 mm 4 mps 756 mmHg 91%
    04:00 -1°C° 0.2 mm 4 mps 757 mmHg 91%
    05:00 -1°C° 0.2 mm 4 mps 757 mmHg 91%
    06:00 -1°C° 0.1 mm 4 mps 757 mmHg 91%
    07:00 -1°C° 0.1 mm 4 mps 758 mmHg 91%
    08:00 -1°C° 0.1 mm 4 mps 758 mmHg 91%
    09:00 -1°C° 0 mm 4 mps 758 mmHg 90%
    10:00 0°C° 0 mm 3 mps 759 mmHg 90%
    11:00 0°C° 0 mm 3 mps 759 mmHg 90%
    12:00 0°C° 0 mm 3 mps 760 mmHg 90%
    13:00 0°C° 0 mm 3 mps 760 mmHg 91%
    14:00 0°C° 0 mm 3 mps 760 mmHg 91%
    15:00 0°C° 0 mm 3 mps 760 mmHg 92%
    16:00 0°C° 0 mm 3 mps 760 mmHg 93%
    17:00 0°C° 0 mm 3 mps 761 mmHg 93%
    18:00 +1°C° 0 mm 2 mps 761 mmHg 94%
    19:00 -1°C° 0 mm 2 mps 761 mmHg 94%
    20:00 -1°C° 0 mm 2 mps 761 mmHg 95%
    21:00 -1°C° 0 mm 2 mps 761 mmHg 95%
    22:00 -2°C° 0 mm 2 mps 761 mmHg 96%
    23:00 0°C° 0 mm 1 mps 762 mmHg 97%

    20 Noviembre, Martes

    Tiempo Temperatura Precipitaciones Viento Presión Humedad
    00:00 -1°C° 0 mm 1 mps 762 mmHg 96%
    01:00 -1°C° 0 mm 1 mps 762 mmHg 96%
    02:00 -2°C° 0 mm 1 mps 762 mmHg 96%
    03:00 -2°C° 0 mm 1 mps 761 mmHg 96%
    04:00 -2°C° 0 mm 1 mps 761 mmHg 96%
    05:00 -3°C° 0 mm 1 mps 761 mmHg 96%
    06:00 -3°C° 0 mm 1 mps 761 mmHg 95%
    07:00 -3°C° 0 mm 1 mps 761 mmHg 95%
    08:00 -3°C° 0 mm 1 mps 761 mmHg 94%
    09:00 -2°C° 0 mm 1 mps 760 mmHg 91%
    10:00 -2°C° 0 mm 1 mps 760 mmHg 88%
    11:00 -1°C° 0 mm 1 mps 760 mmHg 85%
    12:00 -1°C° 0 mm 1 mps 760 mmHg 85%
    13:00 -1°C° 0 mm 1 mps 760 mmHg 86%
    14:00 -1°C° 0 mm 1 mps 759 mmHg 86%
    15:00 -2°C° 0 mm 1 mps 759 mmHg 88%
    16:00 -2°C° 0 mm 1 mps 759 mmHg 89%
    17:00 -3°C° 0 mm 1 mps 759 mmHg 90%
    18:00 -3°C° 0 mm 1 mps 759 mmHg 89%
    19:00 -3°C° 0 mm 1 mps 759 mmHg 88%
    20:00 -3°C° 0 mm 1 mps 759 mmHg 87%
    21:00 -3°C° 0 mm 1 mps 759 mmHg 86%
    22:00 -3°C° 0 mm 1 mps 759 mmHg 85%
    23:00 -3°C° 0 mm 1 mps 759 mmHg 83%
    Mostrar más